N4NVD-13 Weather Reports


Display with metric or nautical units.
time (UTC)temp
F
wind
direction
speed
MPH
gust
MPH
rain 1hr
in
rain 24hr
in
rain mn
in
humidity
%
barometer
mb
20260901051123 83 245 0.0 3.0 0.00 0.00 0.00 82 1014.9
20260901050619 83 219 0.0 3.0 0.00 0.00 0.00 82 1014.8
20260901050114 83 160 0.0 4.0 0.00 0.00 0.00 81 1014.8
20260901045609 83 162 2.0 4.0 0.00 0.00 0.00 81 1014.7
20260901045104 84 172 1.0 6.0 0.00 0.00 0.00 81 1014.7
20260901044600 84 220 3.0 3.0 0.00 0.00 0.00 80 1014.8
20260901044056 84 262 3.0 4.0 0.00 0.00 0.00 80 1014.5
20260901043551 84 215 0.0 3.0 0.00 0.00 0.00 80 1014.7
20260901043047 84 165 2.0 4.0 0.00 0.00 0.00 79 1014.6
20260901042546 84 233 2.0 3.0 0.00 0.00 0.00 78 1014.6
20260901042042 84 240 1.0 6.0 0.00 0.00 0.00 78 1014.6
20260901041536 84 230 0.0 3.0 0.00 0.00 0.00 77 1014.4
20260901041031 85 162 2.0 4.0 0.00 0.00 0.00 76 1014.5
20260901040531 85 240 0.0 3.0 0.00 0.00 0.00 75 1014.7
20260901040031 85 126 0.0 5.0 0.00 0.00 0.00 74 1014.6
20260901035528 85 165 2.0 3.0 0.00 0.00 0.00 73 1014.6
20260901035027 85 225 2.0 4.0 0.00 0.00 0.00 72 1014.4
20260901034522 85 243 2.0 3.0 0.00 0.00 0.00 71 1014.5
20260901034017 86 270 0.0 3.0 0.00 0.00 0.00 70 1014.5
20260901033516 86 243 0.0 3.0 0.00 0.00 0.00 69 1014.4
20260901033015 86 240 1.0 3.0 0.00 0.00 0.00 68 1014.3
20260901032504 86 135 0.0 3.0 0.00 0.00 0.00 68 1014.5
20260901032003 86 220 0.0 2.0 0.00 0.00 0.00 68 1014.5
20260901031459 86 231 2.0 3.0 0.00 0.00 0.00 68 1014.2
20260901030954 86 232 0.0 3.0 0.00 0.00 0.00 68 1014.0
20260901030450 87 229 0.0 3.0 0.00 0.00 0.00 67 1014.0
20260901025949 87 214 2.0 3.0 0.00 0.00 0.00 67 1014.0
20260901025444 87 114 3.0 3.0 0.00 0.00 0.00 66 1013.8
20260901024943 87 114 0.0 3.0 0.00 0.00 0.00 66 1013.9
20260901024438 88 63 1.0 2.0 0.00 0.00 0.00 66 1014.0
20260901023936 88 117 1.0 3.0 0.00 0.00 0.00 65 1013.9
20260901023431 88 107 2.0 4.0 0.00 0.00 0.00 65 1013.8
20260901022926 88 160 0.0 3.0 0.00 0.00 0.00 64 1013.6
20260901022422 89 55 3.0 3.0 0.00 0.00 0.00 64 1013.3
20260901021917 89 158 3.0 7.0 0.00 0.00 0.00 64 1013.3
20260901021412 89 203 1.0 5.0 0.00 0.00 0.00 64 1013.2
20260901020907 89 140 0.0 5.0 0.00 0.00 0.00 65 1013.5
20260901020403 89 173 0.0 2.0 0.00 0.00 0.00 64 1013.3
20260901015901 89 331 0.0 3.0 0.00 0.00 0.00 63 1013.3
20260901015359 89 96 2.0 3.0 0.00 0.00 0.00 61 1013.1
20260901014857 89 90 0.0 2.0 0.00 0.00 0.00 59 1013.1
20260901014353 90 99 0.0 2.0 0.00 0.00 0.00 58 1013.2
20260901013849 90 75 1.0 5.0 0.00 0.00 0.00 57 1012.9
20260901013344 91 97 1.0 7.0 0.00 0.00 0.00 56 1013.0
20260901012840 91 154 0.0 2.0 0.00 0.00 0.00 54 1012.7
20260901012335 91 164 4.0 4.0 0.00 0.00 0.00 54 1012.9
20260901011825 91 135 0.0 3.0 0.00 0.00 0.00 53 1012.6
20260901011320 91 157 0.0 0.0 0.00 0.00 0.00 52 1012.7
20260901010813 92 90 0.0 2.0 0.00 0.00 0.00 51 1012.7
20260901010308 92 145 0.0 2.0 0.00 0.00 0.00 51 1012.7
20260901005807 93 98 0.0 2.0 0.00 0.00 0.00 50 1012.5
20260901005306 93 90 0.0 0.0 0.00 0.00 0.00 49 1012.5
20260901004756 94 157 2.0 3.0 0.00 0.00 0.00 49 1012.4
20260901004252 94 107 0.0 2.0 0.00 0.00 0.00 48 1012.5
20260901003751 95 75 2.0 3.0 0.00 0.00 0.00 48 1012.5
20260901003245 95 157 1.0 1.0 0.00 0.00 0.00 48 1012.5
20260901002739 95 99 2.0 5.0 0.00 0.00 0.00 47 1012.5
20260901002234 96 161 3.0 5.0 0.00 0.00 0.00 46 1012.3
20260901001729 97 161 3.0 3.0 0.00 0.00 0.00 45 1012.5
20260901001225 97 162 2.0 3.0 0.00 0.00 0.00 46 1012.3
20260901000720 97 162 4.0 4.0 0.00 0.00 0.00 45 1012.3
20260901000214 97 173 1.0 5.0 0.00 0.00 0.00 45 1012.4
20260831235708 98 110 2.0 4.0 0.00 0.00 0.00 45 1012.2
20260831235204 98 148 2.0 5.0 0.00 0.00 0.00 44 1012.2
20260831234703 98 131 0.0 5.0 0.00 0.00 0.00 44 1012.5
20260831234158 98 168 3.0 3.0 0.00 0.00 0.00 44 1012.2
20260831233654 98 133 3.0 6.0 0.00 0.00 0.00 44 1012.3
20260831233149 98 96 2.0 4.0 0.00 0.00 0.00 45 1012.5
20260831232649 99 174 1.0 4.0 0.00 0.00 0.00 43 1012.2
20260831232145 99 165 1.0 5.0 0.00 0.00 0.00 43 1012.4
20260831231641 99 158 5.0 5.0 0.00 0.00 0.00 42 1012.4
20260831231137 99 198 0.0 6.0 0.00 0.00 0.00 42 1012.5
20260831230632 100 158 2.0 3.0 0.00 0.00 0.00 42 1012.4
20260831230128 99 270 1.0 2.0 0.00 0.00 0.00 42 1012.5
20260831225627 100 158 0.0 6.0 0.00 0.00 0.00 42 1012.4
20260831225122 100 74 1.0 5.0 0.00 0.00 0.00 41 1012.6
20260831224617 101 119 2.0 4.0 0.00 0.00 0.00 40 1012.5
20260831224113 101 203 1.0 4.0 0.00 0.00 0.00 40 1012.6
20260831223603 100 151 1.0 5.0 0.00 0.00 0.00 40 1012.6
20260831223059 100 180 1.0 6.0 0.00 0.00 0.00 40 1012.7
20260831222555 101 145 5.0 5.0 0.00 0.00 0.00 40 1012.7
20260831222054 100 158 4.0 5.0 0.00 0.00 0.00 40 1012.4
20260831221550 100 127 3.0 6.0 0.00 0.00 0.00 41 1012.7
20260831221045 101 112 4.0 4.0 0.00 0.00 0.00 40 1012.6
20260831220545 101 162 3.0 8.0 0.00 0.00 0.00 39 1013.0
20260831220041 101 77 1.0 4.0 0.00 0.00 0.00 39 1012.6
20260831215536 100 187 3.0 11.0 0.00 0.00 0.00 40 1012.7
20260831215031 99 119 3.0 5.0 0.00 0.00 0.00 40 1012.9
20260831214529 100 42 3.0 7.0 0.00 0.00 0.00 40 1013.2
20260831214024 101 217 2.0 5.0 0.00 0.00 0.00 40 1013.2
20260831213521 100 206 2.0 5.0 0.00 0.00 0.00 42 1013.1
20260831213016 99 124 2.0 3.0 0.00 0.00 0.00 43 1013.1
20260831212513 99 86 2.0 6.0 0.00 0.00 0.00 43 1013.3
20260831212008 100 0 2.0 3.0 0.00 0.00 0.00 41 1013.2
20260831211502 99 90 2.0 3.0 0.00 0.00 0.00 42 1013.1
20260831211001 100 61 2.0 8.0 0.00 0.00 0.00 43 1013.2
20260831210456 101 154 2.0 4.0 0.00 0.00 0.00 43 1013.4
20260831205952 99 98 4.0 6.0 0.00 0.00 0.00 44 1013.5
20260831205448 99 168 3.0 13.0 0.00 0.00 0.00 43 1013.5
20260831204943 98 90 2.0 8.0 0.00 0.00 0.00 45 1013.5
20260831204442 97 98 3.0 9.0 0.00 0.00 0.00 47 1013.9
20260831203936 97 121 3.0 8.0 0.00 0.00 0.00 46 1013.8
20260831203430 96 52 2.0 8.0 0.00 0.00 0.00 47 1013.7
20260831202928 98 90 3.0 8.0 0.00 0.00 0.00 46 1013.8
20260831202424 99 210 2.0 10.0 0.00 0.00 0.00 45 1014.0
20260831201918 99 56 6.0 11.0 0.00 0.00 0.00 43 1014.1
20260831201416 99 90 3.0 7.0 0.00 0.00 0.00 45 1014.2
20260831200913 100 81 5.0 11.0 0.00 0.00 0.00 44 1014.3
20260831200408 98 64 3.0 10.0 0.00 0.00 0.00 44 1014.2
20260831195902 98 83 3.0 9.0 0.00 0.00 0.00 46 1014.5
20260831195358 97 0 4.0 7.0 0.00 0.00 0.00 47 1014.4
20260831194853 97 90 4.0 5.0 0.00 0.00 0.00 49 1014.7
20260831194348 95 41 2.0 5.0 0.00 0.00 0.00 51 1014.6
20260831193847 94 32 2.0 3.0 0.00 0.00 0.00 51 1014.8
20260831193337 94 110 2.0 6.0 0.00 0.00 0.00 51 1015.0
20260831192832 97 83 3.0 4.0 0.00 0.00 0.00 48 1014.8
20260831192332 97 213 5.0 5.0 0.00 0.00 0.00 47 1015.0
20260831191828 95 235 2.0 6.0 0.00 0.00 0.00 51 1015.0
20260831191324 95 103 1.0 4.0 0.00 0.00 0.00 52 1014.9
20260831190819 95 97 4.0 7.0 0.00 0.00 0.00 50 1015.1
20260831190314 96 106 3.0 6.0 0.00 0.00 0.00 51 1015.3
20260831185814 96 83 7.0 7.0 0.00 0.00 0.00 51 1015.1
20260831185309 95 50 3.0 7.0 0.00 0.00 0.00 51 1015.3
20260831184808 98 139 2.0 3.0 0.00 0.00 0.00 50 1015.3
20260831184304 97 225 3.0 4.0 0.00 0.00 0.00 47 1015.3
20260831183759 98 126 0.0 4.0 0.00 0.00 0.00 47 1015.4
20260831183258 97 148 0.0 3.0 0.00 0.00 0.00 49 1015.5
20260831182758 97 214 4.0 5.0 0.00 0.00 0.00 46 1015.5
20260831182253 96 199 3.0 6.0 0.00 0.00 0.00 47 1015.5
20260831181748 96 90 0.0 3.0 0.00 0.00 0.00 48 1015.7
20260831181243 97 180 1.0 6.0 0.00 0.00 0.00 49 1015.9
20260831180742 97 198 2.0 8.0 0.00 0.00 0.00 49 1015.7
20260831180237 97 66 3.0 5.0 0.00 0.00 0.00 50 1016.0
20260831175737 97 67 5.0 7.0 0.00 0.00 0.00 48 1016.2
20260831175234 96 221 0.0 7.0 0.00 0.00 0.00 50 1015.9
20260831174728 96 228 3.0 6.0 0.00 0.00 0.00 52 1016.1
20260831174225 94 231 2.0 4.0 0.00 0.00 0.00 55 1016.0
20260831173723 93 74 3.0 4.0 0.00 0.00 0.00 55 1016.2
20260831173212 93 219 3.0 6.0 0.00 0.00 0.00 56 1016.2
20260831172707 94 157 1.0 6.0 0.00 0.00 0.00 55 1016.4
20260831172203 93 326 4.0 8.0 0.00 0.00 0.00 56 1016.3
20260831171657 95 141 0.0 6.0 0.00 0.00 0.00 55 1016.4
20260831171155 95 147 3.0 5.0 0.00 0.00 0.00 55 1016.5
20260831170651 95 154 2.0 2.0 0.00 0.00 0.00 54 1016.4
20260831170147 95 160 0.0 4.0 0.00 0.00 0.00 55 1016.7
20260831165643 94 0 1.0 3.0 0.00 0.00 0.00 60 1016.8
20260831165139 93 112 0.0 5.0 0.00 0.00 0.00 61 1016.7
20260831164635 92 53 5.0 11.0 0.00 0.00 0.00 62 1016.6
20260831164130 93 105 5.0 8.0 0.00 0.00 0.00 63 1016.6
20260831163625 92 90 2.0 3.0 0.00 0.00 0.00 64 1016.7
20260831163121 93 110 2.0 5.0 0.00 0.00 0.00 61 1016.7
20260831162620 90 208 0.0 6.0 0.00 0.00 0.00 64 1016.7
20260831162118 92 229 5.0 9.0 0.00 0.00 0.00 62 1016.8
20260831161614 92 41 0.0 3.0 0.00 0.00 0.00 61 1016.9
20260831161111 91 150 0.0 5.0 0.00 0.00 0.00 66 1017.0
20260831160609 92 297 0.0 2.0 0.00 0.00 0.00 70 1016.7
20260831160105 90 229 3.0 6.0 0.00 0.00 0.00 71 1016.6
20260831155559 89 234 4.0 9.0 0.00 0.00 0.00 72 1016.7
20260831155055 90 211 5.0 6.0 0.00 0.00 0.00 72 1016.8
20260831154551 90 277 0.0 6.0 0.00 0.00 0.00 74 1016.6
20260831154050 90 221 2.0 4.0 0.00 0.00 0.00 72 1016.5
20260831153544 88 206 4.0 8.0 0.00 0.00 0.00 76 1016.7
20260831153041 89 255 3.0 4.0 0.00 0.00 0.00 75 1016.6
20260831152536 88 238 5.0 5.0 0.00 0.00 0.00 77 1016.6
20260831152032 89 208 5.0 7.0 0.00 0.00 0.00 78 1016.4
20260831151526 88 203 0.0 5.0 0.00 0.00 0.00 79 1016.6
20260831151026 87 201 3.0 5.0 0.00 0.00 0.00 81 1017.0
20260831150521 87 157 3.0 5.0 0.00 0.00 0.00 82 1016.7
20260831150017 88 206 4.0 6.0 0.00 0.00 0.00 81 1016.6
20260831145511 87 165 0.0 4.0 0.00 0.00 0.00 83 1016.7
20260831145007 85 256 4.0 8.0 0.00 0.00 0.00 85 1016.6
20260831144503 86 180 1.0 6.0 0.00 0.00 0.00 85 1016.6
20260831143957 86 229 3.0 5.0 0.00 0.00 0.00 85 1016.6
20260831143451 86 160 3.0 5.0 0.00 0.00 0.00 85 1016.4
20260831142947 85 270 0.0 5.0 0.00 0.00 0.00 87 1016.4
20260831142444 85 213 2.0 3.0 0.00 0.00 0.00 87 1016.4
20260831141938 84 160 4.0 5.0 0.00 0.00 0.00 88 1016.3
20260831141432 83 195 2.0 4.0 0.00 0.00 0.00 89 1016.5
20260831140927 83 212 3.0 5.0 0.00 0.00 0.00 90 1016.2
20260831140421 83 254 0.0 3.0 0.00 0.00 0.00 91 1016.5
20260831135921 83 212 0.0 3.0 0.00 0.00 0.00 91 1016.3
20260831135420 84 173 0.0 1.0 0.00 0.00 0.00 89 1016.3
20260831134915 83 270 2.0 3.0 0.00 0.00 0.00 89 1016.5
20260831134412 83 0 0.0 2.0 0.00 0.00 0.00 91 1016.3
20260831133911 82 82 0.0 3.0 0.00 0.00 0.00 92 1016.3
20260831133406 80 12 0.0 3.0 0.00 0.00 0.00 94 1016.2
20260831132901 80 30 2.0 3.0 0.00 0.00 0.00 95 1016.1
20260831132356 79 73 2.0 3.0 0.00 0.00 0.00 96 1016.1
20260831131856 79 32 2.0 3.0 0.00 0.00 0.00 97 1016.0
20260831131351 79 54 1.0 2.0 0.00 0.00 0.00 99 1016.0
20260831130846 78 12 0.0 0.0 0.00 0.00 0.00 99 1015.8
20260831130342 77 78 2.0 2.0 0.00 0.00 0.00 99 1016.0
20260831125841 76 270 0.0 0.0 0.00 0.00 0.00 99 1015.9
20260831125336 76 270 0.0 0.0 0.00 0.00 0.00 99 1015.6
20260831124831 74 270 0.0 0.0 0.00 0.00 0.00 99 1015.7
20260831124328 73 270 0.0 0.0 0.00 0.00 0.00 99 1015.5
20260831123827 73 270 0.0 0.0 0.00 0.00 0.00 99 1015.7
20260831123326 72 270 0.0 0.0 0.00 0.00 0.00 99 1015.6
20260831122821 71 286 0.0 1.0 0.00 0.00 0.00 99 1015.5
20260831122316 71 81 0.0 0.0 0.00 0.00 0.00 99 1015.6
20260831121811 71 81 0.0 0.0 0.00 0.00 0.00 99 1015.6
20260831121307 71 81 0.0 0.0 0.00 0.00 0.00 99 1015.5
20260831120802 71 81 0.0 0.0 0.00 0.00 0.00 99 1015.4
20260831120256 71 81 0.0 0.0 0.00 0.00 0.00 99 1015.6
20260831115752 71 81 0.0 0.0 0.00 0.00 0.00 99 1015.3
20260831115248 71 81 0.0 0.0 0.00 0.00 0.00 99 1015.3
20260831114747 71 81 0.0 0.0 0.00 0.00 0.00 99 1015.5
20260831114241 71 81 0.0 0.0 0.00 0.00 0.00 99 1015.7
20260831113736 72 279 0.0 1.0 0.00 0.00 0.00 99 1015.3
20260831113231 72 270 0.0 0.0 0.00 0.00 0.00 99 1015.4
20260831112730 72 300 0.0 0.0 0.00 0.00 0.00 99 1015.4
20260831112226 72 294 1.0 1.0 0.00 0.00 0.00 99 1015.4
20260831111721 72 270 0.0 0.0 0.00 0.00 0.00 99 1015.3
20260831111217 72 270 0.0 0.0 0.00 0.00 0.00 99 1015.3
20260831110713 72 90 0.0 0.0 0.00 0.00 0.00 99 1015.2
20260831110208 72 90 0.0 0.0 0.00 0.00 0.00 99 1015.4
20260831105706 72 90 0.0 0.0 0.00 0.00 0.00 99 1015.1
20260831105203 73 90 0.0 0.0 0.00 0.00 0.00 99 1015.3
20260831104657 73 8 0.0 0.0 0.00 0.00 0.00 99 1015.1
20260831104154 73 81 0.0 1.0 0.00 0.00 0.00 99 1015.2
20260831103654 73 308 2.0 2.0 0.00 0.00 0.00 99 1015.1
20260831103149 72 300 0.0 0.0 0.00 0.00 0.00 99 1014.9
20260831102649 72 286 0.0 1.0 0.00 0.00 0.00 99 1015.0
20260831102144 72 81 0.0 0.0 0.00 0.00 0.00 99 1015.1
20260831101639 73 81 0.0 0.0 0.00 0.00 0.00 99 1015.0
20260831101135 74 83 0.0 2.0 0.00 0.00 0.00 99 1015.2
20260831100631 73 74 0.0 1.0 0.00 0.00 0.00 99 1015.0
20260831100127 73 81 0.0 0.0 0.00 0.00 0.00 99 1015.1
20260831095625 73 81 0.0 0.0 0.00 0.00 0.00 99 1014.9
20260831095120 73 81 0.0 0.0 0.00 0.00 0.00 99 1014.8
20260831094615 74 81 0.0 0.0 0.00 0.00 0.00 99 1015.1
20260831094112 73 66 0.0 0.0 0.00 0.00 0.00 99 1014.9
20260831093607 74 66 0.0 0.0 0.00 0.00 0.00 99 1014.9
20260831093103 74 66 0.0 0.0 0.00 0.00 0.00 99 1015.1
20260831092558 74 105 0.0 2.0 0.00 0.00 0.00 99 1014.8
20260831092054 73 23 0.0 0.0 0.00 0.00 0.00 99 1014.9
20260831091553 73 23 0.0 0.0 0.00 0.00 0.00 99 1014.9
20260831091049 73 23 0.0 0.0 0.00 0.00 0.00 99 1014.9
20260831090544 73 23 0.0 0.0 0.00 0.00 0.00 99 1015.2
20260831090040 73 23 0.0 0.0 0.00 0.00 0.00 99 1015.2
20260831085535 73 23 0.0 0.0 0.00 0.00 0.00 99 1014.9
20260831085031 73 23 0.0 0.0 0.00 0.00 0.00 99 1015.1
20260831084527 74 23 0.0 0.0 0.00 0.00 0.00 99 1014.8
20260831084023 73 81 0.0 0.0 0.00 0.00 0.00 99 1014.9
20260831083518 74 81 0.0 0.0 0.00 0.00 0.00 99 1014.9
20260831083018 74 81 0.0 0.0 0.00 0.00 0.00 99 1015.1
20260831082512 75 81 0.0 0.0 0.00 0.00 0.00 99 1015.2
20260831082007 74 81 0.0 0.0 0.00 0.00 0.00 98 1015.2
20260831081503 75 81 0.0 0.0 0.00 0.00 0.00 98 1015.1
20260831080959 75 81 0.0 0.0 0.00 0.00 0.00 98 1015.2
20260831080459 75 81 0.0 0.0 0.00 0.00 0.00 98 1015.1
20260831075954 75 81 0.0 0.0 0.00 0.00 0.00 98 1015.0
20260831075449 75 90 0.0 0.0 0.00 0.00 0.00 98 1015.3
20260831074944 75 90 0.0 0.0 0.00 0.00 0.00 97 1015.2
20260831074438 75 12 0.0 1.0 0.00 0.00 0.00 97 1015.3
20260831073932 75 206 0.0 0.0 0.00 0.00 0.00 97 1015.2
20260831073427 75 206 0.0 0.0 0.00 0.00 0.00 96 1015.3
20260831072921 75 206 0.0 0.0 0.00 0.00 0.00 96 1015.0
20260831072417 75 206 0.0 0.0 0.00 0.00 0.00 95 1015.3
20260831071914 75 206 0.0 0.0 0.00 0.00 0.00 94 1015.2
20260831071412 76 206 0.0 0.0 0.00 0.00 0.00 94 1015.2
20260831070907 76 206 0.0 0.0 0.00 0.00 0.00 92 1015.3
20260831070406 77 206 0.0 0.0 0.00 0.00 0.00 92 1015.4
20260831065906 77 206 0.0 0.0 0.00 0.00 0.00 92 1015.5
20260831065404 78 206 0.0 0.0 0.00 0.00 0.00 91 1015.3
20260831064859 78 206 0.0 0.0 0.00 0.00 0.00 90 1015.5
20260831064354 79 206 0.0 0.0 0.00 0.00 0.00 90 1015.4
20260831063850 79 206 0.0 0.0 0.00 0.00 0.00 90 1015.4
20260831063345 79 206 0.0 0.0 0.00 0.00 0.00 89 1015.4
20260831062844 79 209 0.0 2.0 0.00 0.00 0.00 88 1015.3
20260831062339 80 157 0.0 4.0 0.00 0.00 0.00 88 1015.3
20260831061838 80 106 1.0 2.0 0.00 0.00 0.00 88 1015.4
20260831061332 80 160 0.0 4.0 0.00 0.00 0.00 87 1015.5
20260831060828 80 159 2.0 2.0 0.00 0.00 0.00 87 1015.3
20260831060327 80 154 1.0 3.0 0.00 0.00 0.00 86 1015.4
20260831055822 80 151 2.0 2.0 0.00 0.00 0.00 86 1015.3
20260831055317 81 206 0.0 3.0 0.00 0.00 0.00 85 1015.1
20260831054812 81 225 3.0 4.0 0.00 0.00 0.00 85 1015.4
20260831054307 81 188 0.0 1.0 0.00 0.00 0.00 84 1015.2
20260831053806 81 157 2.0 4.0 0.00 0.00 0.00 83 1015.2
20260831053259 82 206 2.0 5.0 0.00 0.00 0.00 83 1015.2
20260831052754 82 145 0.0 2.0 0.00 0.00 0.00 82 1014.8
20260831052253 82 151 0.0 3.0 0.00 0.00 0.00 81 1015.1
20260831051751 82 228 4.0 6.0 0.00 0.00 0.00 81 1014.8